Weather in Krasnoselskoye

Russia / Krasnodar Krai     45°17′22″N   39°09′30″E
temp.,
°C
wind,
m/s
gust,
m/s
humid.,
%
clouds,
%
prec.,
mm/h
press.,
hPa
HPBL,
m
17 april, sat
sat1700:00+10ne1193100 0.2 101924
03:00+10w3498100 1.3 1020213
06:00+8wsw2591100 1.4 1021249
09:00+9wnw3575100 1.4 1023451
12:00+11w2368100 0.1 1023618
15:00+13sw1260100 0.1 10221162
18:00+10sse5584100 0.0 1022295
21:00+9se3587100 0.0 1022183
18 april, sun
sun1800:00+9se2585100 0.0 1021167
03:00+9e3685100 0.0 1020208
06:00+9e41094100 0.9 1019401
09:00+9ene5996100 4.5 1018331
12:00+11e4587100 1.0 1018477
15:00+11ese2496100 4.1 1018248
18:00+12ese3493100 0.9 1017264
21:00+11e2496100 0.9 1017104
19 april, mon
mon1900:00+10se2395100 0.0 101632
03:00+11sw2395100 0.0 101558
06:00+11wsw2295100 0.2 101519
09:00+15sw2387100 0.9 1015362
12:00+17ssw368698 0.5 1014516
15:00+18w2584100 0.8 1012322
18:00+14n4697100 0.5 1013226
21:00+13ene4797100 0.5 1011161
20 april, tue
tue2000:00+13e3698100 0.1 1008135
03:00+14e61196100 1.2 1003247
06:00+13ne3796100 0.0 1000161
09:00+18wsw91379100 0.0 1002911
12:00+16wsw81471100 0.1 10051108
15:00+14ssw8137796 0.3 10081123
18:00+14sw918680 0.0 10091368
21:00+11sw9157397 0.0 10131230
21 april, wed
wed2100:00+9sw7138020 0.0 1015833
03:00+9wsw5118218 0.0 1016426
06:00+7ssw399362 0.0 1018251
09:00+12sw467070 0.0 1019697
12:00+16wsw3554100 0.0 10191577
15:00+16w3353100 0.0 10191494
18:00+15nnw1164100 0.0 102014
21:00+11se116899 0.0 102210